Total_Precipitation_Accumulation
1.65 1.70 1.75 1.83 1.99 2.18 2.37 2.46 2.36 2.39 2.43 2.39 2.24 2.17 2.12 2.05 2.07 2.12 2.10 2.14 2.18 2.17 2.17 2.10 1.94 1.83 1.90 1.94 1.97 2.04 2.10 2.23 2.18 1.62 1.37 1.35 1.40 1.38 1.39 1.29 1.21 1.18 1.13
1.68 1.68 1.72 1.75 1.78 1.91 2.01 2.22 2.27 2.35 2.34 2.38 2.30 2.18 2.08 1.99 1.94 1.96 1.92 1.89 1.89 1.91 1.92 1.97 1.90 1.79 1.77 1.80 1.87 1.84 1.79 1.79 1.89 1.71 1.38 1.29 1.26 1.20 1.21 1.24 1.18 1.12 1.05
1.67 1.72 1.71 1.67 1.64 1.68 1.80 1.94 2.02 2.11 2.15 2.20 2.29 2.22 2.07 1.98 1.89 1.83 1.78 1.75 1.72 1.67 1.70 1.77 1.81 1.83 1.80 1.77 1.77 1.74 1.69 1.67 1.73 1.78 1.50 1.29 1.25 1.18 1.19 1.18 1.14 1.11 1.04
1.61 1.72 1.75 1.70 1.65 1.59 1.68 1.80 1.88 1.93 2.00 1.98 2.05 2.16 2.18 2.11 2.00 1.90 1.83 1.77 1.73 1.65 1.61 1.67 1.70 1.70 1.64 1.60 1.65 1.61 1.63 1.70 1.71 1.78 1.69 1.50 1.38 1.27 1.29 1.30 1.28 1.15 1.09
1.50 1.67 1.73 1.77 1.82 1.84 1.76 1.75 1.78 1.82 1.89 1.91 1.91 2.00 2.07 2.12 2.09 2.00 1.92 1.87 1.84 1.81 1.71 1.66 1.66 1.73 1.65 1.59 1.59 1.59 1.63 1.75 1.82 1.87 1.77 1.58 1.45 1.40 1.33 1.21 1.26 1.23 1.17
1.33 1.47 1.58 1.68 1.80 1.95 1.96 1.90 1.86 1.82 1.84 1.91 1.91 1.95 1.99 2.01 2.24 2.23 2.03 1.95 1.89 1.78 1.68 1.55 1.55 1.67 1.66 1.66 1.63 1.61 1.69 1.83 1.92 1.94 1.81 1.58 1.31 1.24 1.29 1.41 1.53 1.68 1.62
1.20 1.25 1.38 1.55 1.64 1.76 1.96 2.05 1.98 1.94 1.99 2.00 2.04 2.07 2.06 2.14 2.25 2.09 2.03 1.86 1.81 1.69 1.55 1.45 1.40 1.39 1.50 1.39 1.45 1.53 1.54 1.64 1.73 1.75 1.69 1.38 1.21 1.18 1.44 1.68 1.71 1.72 1.53
1.18 1.24 1.36 1.46 1.55 1.69 1.88 2.04 2.11 2.10 2.17 2.17 2.15 2.15 2.13 2.14 2.18 2.04 2.00 1.81 1.70 1.57 1.45 1.34 1.30 1.28 1.31 1.42 1.50 1.57 1.45 1.36 1.33 1.27 1.25 1.19 1.18 1.28 1.57 1.88 2.04 2.09 1.81
1.13 1.21 1.28 1.40 1.50 1.62 1.79 1.95 2.05 2.11 2.18 2.21 2.11 2.02 1.94 1.93 1.99 1.86 1.86 1.75 1.74 1.60 1.47 1.39 1.34 1.26 1.39 1.61 1.69 1.70 1.50 1.30 1.27 1.31 1.37 1.37 1.46 1.55 1.68 2.04 2.33 2.49 2.22
1.14 1.18 1.19 1.30 1.43 1.52 1.64 1.79 1.93 2.02 2.04 2.00 1.94 1.85 1.75 1.71 1.82 1.73 1.74 1.74 1.75 1.61 1.50 1.44 1.51 1.43 1.54 1.68 1.65 1.68 1.57 1.31 1.21 1.21 1.23 1.26 1.20 1.24 1.48 1.67 2.14 2.65 2.36
1.16 1.19 1.19 1.24 1.37 1.46 1.47 1.54 1.66 1.74 1.75 1.72 1.64 1.64 1.62 1.62 1.67 1.61 1.59 1.62 1.68 1.67 1.60 1.49 1.45 1.65 1.72 1.75 1.66 1.47 1.46 1.50 1.40 1.31 1.27 1.26 1.24 1.22 1.23 1.27 1.57 2.34 2.72
1.16 1.19 1.23 1.27 1.30 1.36 1.36 1.36 1.39 1.44 1.51 1.55 1.47 1.45 1.51 1.56 1.59 1.61 1.63 1.67 1.70 1.65 1.55 1.39 1.41 1.68 1.70 1.66 1.54 1.54 1.65 1.60 1.43 1.45 1.45 1.40 1.34 1.30 1.28 1.30 1.35 1.54 1.90
1.18 1.20 1.23 1.24 1.28 1.33 1.35 1.33 1.35 1.38 1.44 1.51 1.42 1.38 1.38 1.38 1.46 1.63 1.63 1.69 1.70 1.59 1.50 1.56 1.59 1.63 1.58 1.53 1.58 1.59 1.54 1.45 1.52 1.63 1.54 1.39 1.29 1.30 1.35 1.43 1.45 1.45 1.54
1.16 1.19 1.21 1.19 1.23 1.29 1.33 1.34 1.38 1.45 1.44 1.42 1.37 1.32 1.28 1.25 1.22 1.34 1.51 1.58 1.64 1.60 1.60 1.64 1.60 1.55 1.54 1.54 1.62 1.59 1.47 1.48 1.65 1.69 1.55 1.43 1.40 1.46 1.49 1.54 1.72 1.76 1.89
1.07 1.10 1.13 1.16 1.21 1.30 1.35 1.41 1.47 1.50 1.55 1.56 1.42 1.32 1.31 1.31 1.29 1.43 1.54 1.54 1.62 1.69 1.72 1.62 1.53 1.50 1.52 1.49 1.44 1.44 1.47 1.57 1.67 1.59 1.62 1.62 1.62 1.71 1.76 1.80 1.98 2.09 2.14
1.05 1.05 1.10 1.13 1.20 1.27 1.32 1.42 1.53 1.54 1.53 1.53 1.51 1.42 1.34 1.37 1.43 1.48 1.51 1.60 1.71 1.79 1.76 1.66 1.53 1.44 1.43 1.42 1.40 1.40 1.42 1.50 1.61 1.73 1.79 1.80 1.84 1.93 2.01 2.03 2.17 2.31 2.19
1.03 1.07 1.11 1.13 1.19 1.25 1.24 1.26 1.37 1.42 1.39 1.41 1.45 1.42 1.40 1.40 1.40 1.45 1.53 1.59 1.58 1.61 1.57 1.50 1.43 1.38 1.35 1.34 1.37 1.42 1.44 1.44 1.60 1.84 1.98 2.03 2.09 2.14 2.21 2.27 2.28 2.28 2.11
0.95 1.03 1.05 1.10 1.17 1.21 1.23 1.23 1.21 1.23 1.28 1.32 1.36 1.37 1.37 1.38 1.36 1.41 1.50 1.55 1.54 1.49 1.39 1.36 1.34 1.32 1.35 1.39 1.43 1.52 1.57 1.58 1.71 1.88 2.00 2.06 2.19 2.34 2.39 2.31 2.20 2.14 2.05
0.85 0.92 0.97 1.01 1.08 1.15 1.17 1.22 1.21 1.17 1.17 1.18 1.18 1.27 1.35 1.36 1.36 1.41 1.45 1.42 1.44 1.41 1.34 1.31 1.29 1.33 1.40 1.46 1.50 1.58 1.70 1.82 1.90 2.08 2.14 2.14 2.22 2.45 2.45 2.22 2.07 2.00 1.94
0.80 0.89 0.92 0.95 0.98 1.04 1.08 1.13 1.16 1.14 1.11 1.08 1.11 1.19 1.25 1.31 1.31 1.32 1.35 1.38 1.41 1.42 1.38 1.38 1.36 1.38 1.47 1.54 1.59 1.69 1.83 1.89 1.98 2.10 2.16 2.18 2.24 2.37 2.34 2.08 1.92 1.91 1.82
0.76 0.81 0.86 0.86 0.91 0.98 1.04 1.10 1.14 1.14 1.11 1.06 1.09 1.22 1.39 1.42 1.34 1.27 1.31 1.35 1.40 1.44 1.47 1.50 1.50 1.51 1.55 1.63 1.71 1.76 1.87 1.93 2.00 2.15 2.19 2.14 2.14 2.11 1.94 1.87 1.82 1.82 1.84
0.70 0.73 0.76 0.81 0.85 0.93 1.01 1.06 1.09 1.10 1.08 1.06 1.06 1.15 1.27 1.21 1.16 1.17 1.24 1.26 1.27 1.31 1.39 1.52 1.57 1.56 1.69 1.90 2.08 2.17 2.07 1.98 1.99 2.16 2.21 2.06 1.98 1.91 1.86 1.91 1.87 1.86 1.87
0.65 0.67 0.70 0.75 0.80 0.90 0.95 0.94 0.98 1.03 1.05 1.04 1.03 1.05 1.09 1.11 1.09 1.11 1.14 1.16 1.16 1.19 1.23 1.35 1.47 1.46 1.51 1.78 2.09 2.49 2.62 2.35 2.21 2.31 2.42 2.25 2.01 1.93 1.97 2.01 1.91 1.88 1.83
0.60 0.64 0.67 0.71 0.75 0.80 0.86 0.90 0.94 0.99 1.01 1.01 0.98 0.98 1.02 1.06 1.07 1.05 1.07 1.08 1.10 1.10 1.13 1.25 1.37 1.40 1.43 1.66 1.93 2.13 2.31 2.48 2.69 2.70 2.64 2.63 2.33 2.06 2.03 2.01 1.87 1.78 1.77
0.60 0.63 0.66 0.69 0.73 0.77 0.80 0.83 0.87 0.91 0.95 0.96 0.96 0.96 0.96 0.97 1.00 1.00 1.02 1.04 1.04 1.03 1.00 1.08 1.26 1.38 1.45 1.58 1.78 1.94 2.10 2.28 2.46 2.57 2.56 2.50 2.29 2.05 2.00 1.99 1.87 1.77 1.74
0.59 0.60 0.63 0.66 0.69 0.72 0.75 0.78 0.81 0.84 0.90 0.92 0.94 0.94 0.94 0.95 0.97 0.99 1.01 1.03 1.04 1.00 0.96 0.98 1.06 1.22 1.36 1.50 1.60 1.78 1.93 1.92 1.80 1.81 2.10 2.29 2.18 1.96 1.94 2.02 1.90 1.84 1.80